Powrót do katalogu

STARLINK-33958

AktywnyŁącznośćVLEO
NORAD 63850·PAYLOAD·🇺🇸 United States

Wystrzelony May 7, 2025 z Cape Canaveral Space Force Station

Loading…

Następne Przeloty (najbliższe 24 godziny)

TLE

ŚwieżeSource: CelesTrak SupGP

Epoka: Sep 14, 2026, 23:04 UTC

1 63850C 25093Q   26257.96159722  .00060533  00000+0  21924-2 0  2577
2 63850  43.0003  89.3086 0001493 274.2285 142.2433 15.27549200    10

Śledź STARLINK-33958 w czasie rzeczywistym z AllMySat

Download on the App Store